20040110,000007,363429,31.087667,-122.652167,NaN,16.428,32.925,41.971,  NaN,0.0, NaN, NaN, NaN, NaN, NaN,384.804,16.40,1020.14,94.40,NaN,60.0,NaN,3.1,NaN,163.5,NaN,3.1,NaN,NaN, NaN,NaN,87.0,NaN,NaN,NaN,2,1.8,000005,   NaN,89.1,     NaN,      NaN,NaN,0.9,NaN,16.432, NaN,NaN,NaN, NaN, NaN

20040110,000037,363459,31.087833,-122.651833,NaN,16.429,32.926,41.973,  NaN,0.0, NaN, NaN, NaN, NaN, NaN,384.801,16.40,1020.54,94.40,NaN,60.0,NaN,2.5,NaN,169.5,NaN,2.4,NaN,NaN, NaN,NaN,87.0,NaN,NaN,NaN,2,1.9,000035,   NaN,89.0,     NaN,      NaN,NaN,0.9,NaN,16.433, NaN,NaN,NaN, NaN, NaN

20040110,000107,363489,31.087833,-122.651500,NaN,16.432,32.926,41.976,  NaN,0.0, NaN, NaN, NaN, NaN, NaN,384.879,16.40,1020.08,94.30,NaN,61.0,NaN,3.2,NaN,169.4,NaN,2.8,NaN,NaN, NaN,NaN,89.0,NaN,NaN,NaN,2,1.7,000065,   NaN,91.7,     NaN,      NaN,NaN,0.9,NaN,16.436, NaN,NaN,NaN, NaN, NaN

20040110,000137,363519,31.087833,-122.651167,NaN,16.433,32.926,41.977,  NaN,0.0, NaN, NaN, NaN, NaN, NaN,384.855,16.40,1020.09,94.50,NaN,61.0,NaN,2.9,NaN,170.1,NaN,3.0,NaN,NaN, NaN,NaN,93.0,NaN,NaN,NaN,2,1.9,000095,   NaN,92.4,     NaN,      NaN,NaN,0.8,NaN,16.437, NaN,NaN,NaN, NaN, NaN

20040110,000207,363549,31.087833,-122.651000,NaN,16.437,32.926,41.981,  NaN,0.0, NaN, NaN, NaN, NaN, NaN,384.954,16.40,1020.25,94.30,NaN,59.0,NaN,2.8,NaN,170.0,NaN,2.5,NaN,NaN, NaN,NaN,92.0,NaN,NaN,NaN,2,1.8,000125,   NaN,92.3,     NaN,      NaN,NaN,0.9,NaN,16.441, NaN,NaN,NaN, NaN, NaN

20040110,000237,363579,31.087833,-122.650667,NaN,16.440,32.926,41.983,  NaN,0.0, NaN, NaN, NaN, NaN, NaN,385.011,16.40,1020.20,94.50,NaN,58.0,NaN,2.8,NaN,171.2,NaN,2.4,NaN,NaN, NaN,NaN,92.0,NaN,NaN,NaN,2,2.0,000155,   NaN,92.3,     NaN,      NaN,NaN,0.9,NaN,16.444, NaN,NaN,NaN, NaN, NaN

20040110,000307,363609,31.087833,-122.650333,NaN,16.443,32.927,41.988,  NaN,0.0, NaN, NaN, NaN, NaN, NaN,385.020,16.40,1020.24,94.30,NaN,54.0,NaN,4.1,NaN,164.4,NaN,3.2,NaN,NaN, NaN,NaN,94.0,NaN,NaN,NaN,2,2.2,000185,   NaN,92.5,     NaN,      NaN,NaN,0.9,NaN,16.447, NaN,NaN,NaN, NaN, NaN

20040110,000337,363639,31.087833,-122.650000,NaN,16.443,32.928,41.988,  NaN,0.0, NaN, NaN, NaN, NaN, NaN,384.955,16.40,1020.44,94.40,NaN,55.0,NaN,2.7,NaN,170.2,NaN,2.5,NaN,NaN, NaN,NaN,95.0,NaN,NaN,NaN,2,2.2,000215,   NaN,91.7,     NaN,      NaN,NaN,0.9,NaN,16.447, NaN,NaN,NaN, NaN, NaN

20040110,000407,363669,31.087833,-122.649667,NaN,16.444,32.928,41.989,  NaN,0.0, NaN, NaN, NaN, NaN, NaN,384.997,16.40,1020.26,94.40,NaN,51.0,NaN,4.2,NaN,156.6,NaN,3.2,NaN,NaN, NaN,NaN,99.0,NaN,NaN,NaN,2,2.2,000245,   NaN,91.6,     NaN,      NaN,NaN,1.1,NaN,16.448, NaN,NaN,NaN, NaN, NaN

20040110,000437,363699,31.087833,-122.649333,NaN,16.444,32.927,41.989,  NaN,0.0, NaN, NaN, NaN, NaN, NaN,385.017,16.40,1020.34,94.40,NaN,51.0,NaN,4.1,NaN,157.5,NaN,3.6,NaN,NaN, NaN,NaN,97.0,NaN,NaN,NaN,2,2.3,000275,   NaN,90.5,     NaN,      NaN,NaN,1.1,NaN,16.448, NaN,NaN,NaN, NaN, NaN

20040110,000507,363729,31.087833,-122.649000,NaN,16.442,32.927,41.987,  NaN,0.0, NaN, NaN, NaN, NaN, NaN,384.979,16.40,1020.23,94.50,NaN,55.0,NaN,3.4,NaN,165.1,NaN,3.0,NaN,NaN, NaN,NaN,96.0,NaN,NaN,NaN,2,2.3,000305,   NaN,91.5,     NaN,      NaN,NaN,1.1,NaN,16.446, NaN,NaN,NaN, NaN, NaN

20040110,000537,363759,31.087833,-122.648667,NaN,16.445,32.928,41.991,  NaN,0.0, NaN, NaN, NaN, NaN, NaN,384.949,16.40,1020.08,94.30,NaN,51.0,NaN,4.0,NaN,159.9,NaN,2.9,NaN,NaN, NaN,NaN,92.0,NaN,NaN,NaN,2,2.3,000335,   NaN,90.0,     NaN,      NaN,NaN,1.1,NaN,16.449, NaN,NaN,NaN, NaN, NaN

20040110,000607,363789,31.087833,-122.648167,NaN,16.449,32.928,41.995,  NaN,0.0, NaN, NaN, NaN, NaN, NaN,385.048,16.30,1020.10,94.30,NaN,56.0,NaN,3.7,NaN,161.3,NaN,3.2,NaN,NaN, NaN,NaN,87.0,NaN,NaN,NaN,2,2.5,000365,   NaN,89.6,     NaN,      NaN,NaN,1.1,NaN,16.453, NaN,NaN,NaN, NaN, NaN

20040110,000637,363819,31.087833,-122.647833,NaN,16.451,32.929,41.998,  NaN,0.0, NaN, NaN, NaN, NaN, NaN,385.020,16.40,1020.40,94.40,NaN,49.0,NaN,3.5,NaN,160.6,NaN,2.5,NaN,NaN, NaN,NaN,92.0,NaN,NaN,NaN,2,2.4,000395,   NaN,88.7,     NaN,      NaN,NaN,1.1,NaN,16.455, NaN,NaN,NaN, NaN, NaN

20040110,000707,363849,31.087833,-122.647500,NaN,16.450,32.929,41.996,  NaN,0.0, NaN, NaN, NaN, NaN, NaN,384.979,16.40,1020.44,94.40,NaN,51.0,NaN,3.2,NaN,154.4,NaN,2.9,NaN,NaN, NaN,NaN,90.0,NaN,NaN,NaN,2,2.2,000425,   NaN,89.4,     NaN,      NaN,NaN,1.0,NaN,16.453, NaN,NaN,NaN, NaN, NaN

20040110,000737,363879,31.087833,-122.647167,NaN,16.450,32.929,41.996,  NaN,0.0, NaN, NaN, NaN, NaN, NaN,385.001,16.40,1020.19,94.50,NaN,40.0,NaN,3.2,NaN,151.1,NaN,2.5,NaN,NaN, NaN,NaN,91.0,NaN,NaN,NaN,2,1.9,000455,   NaN,95.7,     NaN,      NaN,NaN,1.0,NaN,16.454, NaN,NaN,NaN, NaN, NaN

20040110,000807,363909,31.087833,-122.646833,NaN,16.454,32.929,42.001,  NaN,0.0, NaN, NaN, NaN, NaN, NaN,385.074,16.40,1020.18,94.50,NaN,39.0,NaN,3.3,NaN,153.6,NaN,2.6,NaN,NaN, NaN,NaN,94.0,NaN,NaN,NaN,2,1.9,000485,   NaN,100.7,     NaN,      NaN,NaN,0.9,NaN,16.458, NaN,NaN,NaN, NaN, NaN

20040110,000837,363939,31.087833,-122.646667,NaN,16.457,32.930,42.005,  NaN,0.0, NaN, NaN, NaN, NaN, NaN,385.063,16.40,1020.55,94.40,NaN,38.0,NaN,3.6,NaN,151.5,NaN,2.7,NaN,NaN, NaN,NaN,95.0,NaN,NaN,NaN,2,1.8,000515,   NaN,101.0,     NaN,      NaN,NaN,0.8,NaN,16.461, NaN,NaN,NaN, NaN, NaN

20040110,000907,363969,31.087833,-122.646333,NaN,16.458,32.931,42.007,  NaN,0.0, NaN, NaN, NaN, NaN, NaN,385.038,16.40,1020.37,94.40,NaN,39.0,NaN,4.0,NaN,148.9,NaN,2.9,NaN,NaN, NaN,NaN,91.0,NaN,NaN,NaN,2,1.9,000545,   NaN,97.6,     NaN,      NaN,NaN,0.9,NaN,16.462, NaN,NaN,NaN, NaN, NaN

20040110,000937,363999,31.087833,-122.646000,NaN,16.460,32.932,42.009,  NaN,0.0, NaN, NaN, NaN, NaN, NaN,385.033,16.40,1020.12,94.40,NaN,34.0,NaN,4.2,NaN,142.7,NaN,2.7,NaN,NaN, NaN,NaN,92.0,NaN,NaN,NaN,2,1.9,000575,   NaN,96.2,     NaN,      NaN,NaN,0.9,NaN,16.464, NaN,NaN,NaN, NaN, NaN

20040110,001007,364029,31.087833,-122.645833,NaN,16.461,32.931,42.010,  NaN,0.0, NaN, NaN, NaN, NaN, NaN,385.072,16.40,1020.58,94.40,NaN,36.0,NaN,3.0,NaN,151.0,NaN,2.2,NaN,NaN, NaN,NaN,92.0,NaN,NaN,NaN,2,1.9,000605,   NaN,96.6,     NaN,      NaN,NaN,0.9,NaN,16.465, NaN,NaN,NaN, NaN, NaN

20040110,001037,364059,31.087833,-122.645500,NaN,16.461,32.933,42.011,  NaN,0.0, NaN, NaN, NaN, NaN, NaN,384.984,16.40,1020.37,94.40,NaN,32.0,NaN,3.1,NaN,141.4,NaN,2.7,NaN,NaN, NaN,NaN,107.0,NaN,NaN,NaN,2,1.7,000635,   NaN,100.0,     NaN,      NaN,NaN,0.8,NaN,16.465, NaN,NaN,NaN, NaN, NaN

20040110,001107,364089,31.087833,-122.645167,NaN,16.463,32.932,42.013,  NaN,0.0, NaN, NaN, NaN, NaN, NaN,385.068,16.40,1020.36,94.50,NaN,32.0,NaN,3.4,NaN,145.8,NaN,2.7,NaN,NaN, NaN,NaN,105.0,NaN,NaN,NaN,2,1.7,000665,   NaN,102.0,     NaN,      NaN,NaN,0.8,NaN,16.467, NaN,NaN,NaN, NaN, NaN

20040110,001137,364119,31.087833,-122.645000,NaN,16.465,32.933,42.015,  NaN,0.0, NaN, NaN, NaN, NaN, NaN,385.062,16.40,1020.21,94.40,NaN,31.0,NaN,4.0,NaN,137.8,NaN,4.0,NaN,NaN, NaN,NaN,107.0,NaN,NaN,NaN,2,1.7,000695,   NaN,101.6,     NaN,      NaN,NaN,0.7,NaN,16.469, NaN,NaN,NaN, NaN, NaN

20040110,001207,364149,31.087833,-122.644833,NaN,16.464,32.933,42.015,  NaN,0.0, NaN, NaN, NaN, NaN, NaN,385.019,16.40,1020.42,94.40,NaN,35.0,NaN,3.3,NaN,147.2,NaN,2.5,NaN,NaN, NaN,NaN,97.0,NaN,NaN,NaN,2,1.6,000725,   NaN,100.5,     NaN,      NaN,NaN,0.7,NaN,16.468, NaN,NaN,NaN, NaN, NaN

20040110,001237,364179,31.087833,-122.644500,NaN,16.467,32.933,42.017,  NaN,0.0, NaN, NaN, NaN, NaN, NaN,385.120,16.40,1020.22,94.30,NaN,33.0,NaN,3.0,NaN,145.8,NaN,3.0,NaN,NaN, NaN,NaN,116.0,NaN,NaN,NaN,2,1.4,000755,   NaN,101.1,     NaN,      NaN,NaN,0.7,NaN,16.471, NaN,NaN,NaN, NaN, NaN

20040110,001307,364209,31.087833,-122.644333,NaN,16.466,32.934,42.017,  NaN,0.0, NaN, NaN, NaN, NaN, NaN,385.032,16.30,1020.40,94.30,NaN,29.0,NaN,2.5,NaN,142.3,NaN,2.6,NaN,NaN, NaN,NaN,104.0,NaN,NaN,NaN,2,1.8,000785,   NaN,104.2,     NaN,      NaN,NaN,0.8,NaN,16.470, NaN,NaN,NaN, NaN, NaN

20040110,001337,364239,31.087833,-122.644167,NaN,16.470,32.934,42.020,  NaN,0.0, NaN, NaN, NaN, NaN, NaN,385.111,16.40,1020.20,94.50,NaN,26.0,NaN,2.7,NaN,141.4,NaN,2.5,NaN,NaN, NaN,NaN,112.0,NaN,NaN,NaN,2,1.4,000815,   NaN,108.5,     NaN,      NaN,NaN,0.6,NaN,16.474, NaN,NaN,NaN, NaN, NaN

20040110,001407,364269,31.087667,-122.644000,NaN,16.471,32.934,42.022,  NaN,0.0, NaN, NaN, NaN, NaN, NaN,385.085,16.40,1020.40,94.40,NaN,22.0,NaN,3.4,NaN,142.7,NaN,2.8,NaN,NaN, NaN,NaN,110.0,NaN,NaN,NaN,2,1.4,000845,   NaN,108.5,     NaN,      NaN,NaN,0.6,NaN,16.475, NaN,NaN,NaN, NaN, NaN

20040110,001437,364299,31.087667,-122.643667,NaN,16.469,32.935,42.021,  NaN,0.0, NaN, NaN, NaN, NaN, NaN,385.022,16.40,1020.12,94.40,NaN,27.0,NaN,3.3,NaN,143.3,NaN,2.7,NaN,NaN, NaN,NaN,111.0,NaN,NaN,NaN,2,1.5,000875,   NaN,107.8,     NaN,      NaN,NaN,0.8,NaN,16.473, NaN,NaN,NaN, NaN, NaN

20040110,001507,364329,31.087667,-122.643500,NaN,16.463,32.934,42.014,  NaN,0.0, NaN, NaN, NaN, NaN, NaN,384.934,16.40,1020.18,94.30,NaN,30.0,NaN,3.3,NaN,146.2,NaN,2.7,NaN,NaN, NaN,NaN,102.0,NaN,NaN,NaN,2,1.8,000905,   NaN,107.3,     NaN,      NaN,NaN,0.7,NaN,16.466, NaN,NaN,NaN, NaN, NaN

20040110,001537,364359,31.087667,-122.643167,NaN,16.458,32.933,42.009,  NaN,0.0, NaN, NaN, NaN, NaN, NaN,384.860,16.40,1020.41,94.40,NaN,32.0,NaN,3.8,NaN,150.8,NaN,2.9,NaN,NaN, NaN,NaN,106.0,NaN,NaN,NaN,2,1.6,000935,   NaN,108.4,     NaN,      NaN,NaN,0.7,NaN,16.462, NaN,NaN,NaN, NaN, NaN

20040110,001607,364389,31.087500,-122.643000,NaN,16.455,32.932,42.005,  NaN,0.0, NaN, NaN, NaN, NaN, NaN,384.891,16.40,1020.12,94.50,NaN,30.0,NaN,3.2,NaN,150.9,NaN,2.8,NaN,NaN, NaN,NaN,106.0,NaN,NaN,NaN,2,1.7,000965,   NaN,111.8,     NaN,      NaN,NaN,0.8,NaN,16.459, NaN,NaN,NaN, NaN, NaN

20040110,001637,364419,31.087500,-122.642667,NaN,16.451,32.932,42.001,  NaN,0.0, NaN, NaN, NaN, NaN, NaN,384.838,16.40,1020.29,94.50,NaN,25.0,NaN,4.0,NaN,146.7,NaN,3.8,NaN,NaN, NaN,NaN,120.0,NaN,NaN,NaN,2,1.7,000995,   NaN,112.6,     NaN,      NaN,NaN,0.7,NaN,16.455, NaN,NaN,NaN, NaN, NaN

20040110,001707,364449,31.087500,-122.642500,NaN,16.454,32.932,42.003,  NaN,0.0, NaN, NaN, NaN, NaN, NaN,384.896,16.40,1020.22,94.50,NaN,26.0,NaN,4.4,NaN,145.2,NaN,4.0,NaN,NaN, NaN,NaN,112.0,NaN,NaN,NaN,2,1.8,001025,   NaN,109.8,     NaN,      NaN,NaN,0.8,NaN,16.458, NaN,NaN,NaN, NaN, NaN

20040110,001737,364479,31.087500,-122.642167,NaN,16.460,32.933,42.010,  NaN,0.0, NaN, NaN, NaN, NaN, NaN,384.963,16.40,1020.29,94.50,NaN,33.0,NaN,2.9,NaN,149.1,NaN,2.5,NaN,NaN, NaN,NaN,102.0,NaN,NaN,NaN,2,1.5,001055,   NaN,105.3,     NaN,      NaN,NaN,0.8,NaN,16.464, NaN,NaN,NaN, NaN, NaN

20040110,001807,364509,31.087333,-122.642000,NaN,16.465,32.934,42.016,  NaN,0.0, NaN, NaN, NaN, NaN, NaN,384.994,16.40,1020.28,94.30,NaN,35.0,NaN,3.9,NaN,141.8,NaN,3.3,NaN,NaN, NaN,NaN,99.0,NaN,NaN,NaN,2,1.4,001085,   NaN,100.1,     NaN,      NaN,NaN,0.7,NaN,16.469, NaN,NaN,NaN, NaN, NaN

20040110,001837,364539,31.087333,-122.641833,NaN,16.465,32.935,42.017,  NaN,0.0, NaN, NaN, NaN, NaN, NaN,384.928,16.40,1020.25,94.30,NaN,38.0,NaN,3.6,NaN,143.6,NaN,3.0,NaN,NaN, NaN,NaN,94.0,NaN,NaN,NaN,2,1.5,001115,   NaN,96.4,     NaN,      NaN,NaN,0.8,NaN,16.469, NaN,NaN,NaN, NaN, NaN

20040110,001907,364569,31.087333,-122.641500,NaN,16.466,32.935,42.019,  NaN,0.0, NaN, NaN, NaN, NaN, NaN,384.944,16.40,1020.31,94.50,NaN,35.0,NaN,3.3,NaN,144.1,NaN,2.5,NaN,NaN, NaN,NaN,95.0,NaN,NaN,NaN,2,1.4,001145,   NaN,99.1,     NaN,      NaN,NaN,0.7,NaN,16.470, NaN,NaN,NaN, NaN, NaN

20040110,001937,364599,31.087333,-122.641333,NaN,16.466,32.935,42.018,  NaN,0.0, NaN, NaN, NaN, NaN, NaN,384.923,16.40,1020.51,94.50,NaN,31.0,NaN,3.7,NaN,142.4,NaN,3.1,NaN,NaN, NaN,NaN,96.0,NaN,NaN,NaN,2,1.8,001175,   NaN,101.2,     NaN,      NaN,NaN,0.7,NaN,16.470, NaN,NaN,NaN, NaN, NaN

20040110,002007,364629,31.087333,-122.641000,NaN,16.466,32.935,42.018,  NaN,0.0, NaN, NaN, NaN, NaN, NaN,384.923,16.40,1020.11,94.50,NaN,30.0,NaN,3.4,NaN,142.7,NaN,3.0,NaN,NaN, NaN,NaN,98.0,NaN,NaN,NaN,2,1.3,001205,   NaN,106.5,     NaN,      NaN,NaN,0.7,NaN,16.470, NaN,NaN,NaN, NaN, NaN

20040110,002037,364659,31.087333,-122.640833,NaN,16.470,32.935,42.022,  NaN,0.0, NaN, NaN, NaN, NaN, NaN,385.019,16.40,1020.24,94.50,NaN,20.0,NaN,2.7,NaN,135.9,NaN,2.7,NaN,NaN, NaN,NaN,103.0,NaN,NaN,NaN,2,1.5,001235,   NaN,109.9,     NaN,      NaN,NaN,0.7,NaN,16.474, NaN,NaN,NaN, NaN, NaN

20040110,002107,364689,31.087333,-122.640667,NaN,16.471,32.936,42.024,  NaN,0.0, NaN, NaN, NaN, NaN, NaN,384.993,16.40,1020.36,94.50,NaN,28.0,NaN,4.6,NaN,135.3,NaN,4.1,NaN,NaN, NaN,NaN,104.0,NaN,NaN,NaN,2,1.7,001265,   NaN,107.8,     NaN,      NaN,NaN,0.8,NaN,16.475, NaN,NaN,NaN, NaN, NaN

20040110,002137,364719,31.087333,-122.640333,NaN,16.474,32.936,42.027,  NaN,0.0, NaN, NaN, NaN, NaN, NaN,385.009,16.40,1020.14,94.40,NaN,28.0,NaN,4.0,NaN,139.2,NaN,3.1,NaN,NaN, NaN,NaN,102.0,NaN,NaN,NaN,2,1.4,001295,   NaN,104.9,     NaN,      NaN,NaN,0.7,NaN,16.477, NaN,NaN,NaN, NaN, NaN

20040110,002207,364749,31.087333,-122.640167,NaN,16.471,32.936,42.024,  NaN,0.0, NaN, NaN, NaN, NaN, NaN,384.950,16.30,1020.41,94.40,NaN,34.0,NaN,4.5,NaN,141.3,NaN,3.6,NaN,NaN, NaN,NaN,100.0,NaN,NaN,NaN,2,1.7,001325,   NaN,102.7,     NaN,      NaN,NaN,0.8,NaN,16.475, NaN,NaN,NaN, NaN, NaN

20040110,002237,364779,31.087167,-122.639833,NaN,16.465,32.935,42.018,  NaN,0.0, NaN, NaN, NaN, NaN, NaN,384.881,16.40,1020.15,94.50,NaN,29.0,NaN,3.7,NaN,137.8,NaN,2.7,NaN,NaN, NaN,NaN,91.0,NaN,NaN,NaN,2,1.6,001355,   NaN,100.0,     NaN,      NaN,NaN,0.9,NaN,16.469, NaN,NaN,NaN, NaN, NaN

20040110,002307,364809,31.087167,-122.639667,NaN,16.465,32.935,42.017,  NaN,0.0, NaN, NaN, NaN, NaN, NaN,384.927,16.40,1020.34,94.50,NaN,30.0,NaN,4.6,NaN,139.0,NaN,3.9,NaN,NaN, NaN,NaN,93.0,NaN,NaN,NaN,2,1.7,001385,   NaN,97.8,     NaN,      NaN,NaN,0.9,NaN,16.469, NaN,NaN,NaN, NaN, NaN

20040110,002337,364839,31.087167,-122.639333,NaN,16.466,32.935,42.019,  NaN,0.0, NaN, NaN, NaN, NaN, NaN,384.899,16.40,1020.42,94.40,NaN,33.0,NaN,4.2,NaN,143.2,NaN,3.6,NaN,NaN, NaN,NaN,98.0,NaN,NaN,NaN,2,1.8,001415,   NaN,101.5,     NaN,      NaN,NaN,0.9,NaN,16.470, NaN,NaN,NaN, NaN, NaN

20040110,002407,364869,31.087167,-122.639167,NaN,16.464,32.934,42.016,  NaN,0.0, NaN, NaN, NaN, NaN, NaN,384.910,16.40,1020.24,94.50,NaN,26.0,NaN,4.1,NaN,137.3,NaN,3.4,NaN,NaN, NaN,NaN,98.0,NaN,NaN,NaN,2,1.8,001445,   NaN,103.3,     NaN,      NaN,NaN,0.8,NaN,16.468, NaN,NaN,NaN, NaN, NaN

20040110,002437,364899,31.087167,-122.638833,NaN,16.462,32.934,42.013,  NaN,0.0, NaN, NaN, NaN, NaN, NaN,384.936,16.40,1020.25,94.40,NaN,31.0,NaN,4.0,NaN,135.6,NaN,3.9,NaN,NaN, NaN,NaN,105.0,NaN,NaN,NaN,2,1.8,001475,   NaN,104.0,     NaN,      NaN,NaN,0.8,NaN,16.466, NaN,NaN,NaN, NaN, NaN

20040110,002507,364929,31.087167,-122.638500,NaN,16.459,32.934,42.010,  NaN,0.0, NaN, NaN, NaN, NaN, NaN,384.856,16.40,1020.35,94.70,NaN,33.0,NaN,4.0,NaN,143.7,NaN,3.5,NaN,NaN, NaN,NaN,104.0,NaN,NaN,NaN,2,1.6,001505,   NaN,104.1,     NaN,      NaN,NaN,0.7,NaN,16.463, NaN,NaN,NaN, NaN, NaN

20040110,002537,364959,31.087167,-122.638333,NaN,16.453,32.934,42.005,  NaN,0.0, NaN, NaN, NaN, NaN, NaN,384.719,16.40,1020.37,94.50,NaN,33.0,NaN,4.9,NaN,143.0,NaN,4.8,NaN,NaN, NaN,NaN,112.0,NaN,NaN,NaN,2,1.8,001535,   NaN,103.4,     NaN,      NaN,NaN,0.8,NaN,16.457, NaN,NaN,NaN, NaN, NaN

20040110,002607,364989,31.087000,-122.638000,NaN,16.452,32.933,42.002,  NaN,0.0, NaN, NaN, NaN, NaN, NaN,384.792,16.40,1020.31,94.70,NaN,38.0,NaN,4.5,NaN,149.6,NaN,4.3,NaN,NaN, NaN,NaN,105.0,NaN,NaN,NaN,2,1.8,001565,   NaN,100.5,     NaN,      NaN,NaN,0.8,NaN,16.456, NaN,NaN,NaN, NaN, NaN

20040110,002637,365019,31.087000,-122.637667,NaN,16.453,32.933,42.004,  NaN,0.0, NaN, NaN, NaN, NaN, NaN,384.745,16.40,1020.24,94.30,NaN,36.0,NaN,4.6,NaN,141.4,NaN,5.0,NaN,NaN, NaN,NaN,108.0,NaN,NaN,NaN,2,1.9,001595,   NaN,100.3,     NaN,      NaN,NaN,0.9,NaN,16.457, NaN,NaN,NaN, NaN, NaN

20040110,002707,365049,31.087000,-122.637500,NaN,16.455,32.933,42.006,  NaN,0.0, NaN, NaN, NaN, NaN, NaN,384.826,16.30,1020.32,94.70,NaN,42.0,NaN,3.7,NaN,147.6,NaN,3.6,NaN,NaN, NaN,NaN,96.0,NaN,NaN,NaN,2,1.7,001625,   NaN,100.9,     NaN,      NaN,NaN,0.8,NaN,16.459, NaN,NaN,NaN, NaN, NaN

20040110,002737,365079,31.087000,-122.637167,NaN,16.456,32.934,42.008,  NaN,0.0, NaN, NaN, NaN, NaN, NaN,384.820,16.30,1020.15,94.40,NaN,35.0,NaN,5.1,NaN,144.9,NaN,4.3,NaN,NaN, NaN,NaN,96.0,NaN,NaN,NaN,2,1.6,001655,   NaN,101.4,     NaN,      NaN,NaN,0.8,NaN,16.460, NaN,NaN,NaN, NaN, NaN

20040110,002807,365109,31.087000,-122.637000,NaN,16.456,32.933,42.007,  NaN,0.0, NaN, NaN, NaN, NaN, NaN,384.845,16.30,1020.18,94.30,NaN,35.0,NaN,5.3,NaN,139.4,NaN,4.1,NaN,NaN, NaN,NaN,94.0,NaN,NaN,NaN,2,1.7,001685,   NaN,101.3,     NaN,      NaN,NaN,0.8,NaN,16.460, NaN,NaN,NaN, NaN, NaN

20040110,002837,365139,31.087000,-122.636667,NaN,16.459,32.933,42.010,  NaN,0.0, NaN, NaN, NaN, NaN, NaN,384.923,16.30,1020.29,94.30,NaN,39.0,NaN,5.3,NaN,143.6,NaN,4.7,NaN,NaN, NaN,NaN,101.0,NaN,NaN,NaN,2,1.6,001715,   NaN,100.4,     NaN,      NaN,NaN,0.8,NaN,16.463, NaN,NaN,NaN, NaN, NaN

20040110,002907,365169,31.087000,-122.636500,NaN,16.465,32.934,42.016,  NaN,0.0, NaN, NaN, NaN, NaN, NaN,384.972,16.40,1020.50,94.50,NaN,36.0,NaN,5.0,NaN,144.7,NaN,4.3,NaN,NaN, NaN,NaN,102.0,NaN,NaN,NaN,2,1.8,001745,   NaN,101.4,     NaN,      NaN,NaN,0.8,NaN,16.469, NaN,NaN,NaN, NaN, NaN

20040110,002937,365199,31.087000,-122.636167,NaN,16.466,32.935,42.018,  NaN,0.0, NaN, NaN, NaN, NaN, NaN,384.967,16.40,1020.16,94.50,NaN,31.0,NaN,4.7,NaN,137.5,NaN,4.0,NaN,NaN, NaN,NaN,111.0,NaN,NaN,NaN,2,1.6,001775,   NaN,100.7,     NaN,      NaN,NaN,0.9,NaN,16.471, NaN,NaN,NaN, NaN, NaN

20040110,003007,365229,31.087000,-122.635833,NaN,16.467,32.935,42.020,  NaN,0.0, NaN, NaN, NaN, NaN, NaN,384.918,16.40,1020.29,94.50,NaN,33.0,NaN,4.2,NaN,140.3,NaN,4.0,NaN,NaN, NaN,NaN,100.0,NaN,NaN,NaN,2,1.9,001805,   NaN,99.5,     NaN,      NaN,NaN,0.9,NaN,16.471, NaN,NaN,NaN, NaN, NaN

20040110,003037,365259,31.087000,-122.635667,NaN,16.466,32.935,42.018,  NaN,0.0, NaN, NaN, NaN, NaN, NaN,384.901,16.40,1020.29,94.50,NaN,38.0,NaN,4.9,NaN,147.4,NaN,3.8,NaN,NaN, NaN,NaN,94.0,NaN,NaN,NaN,2,2.0,001835,   NaN,98.6,     NaN,      NaN,NaN,0.9,NaN,16.470, NaN,NaN,NaN, NaN, NaN

20040110,003107,365289,31.087000,-122.635333,NaN,16.464,32.935,42.016,  NaN,0.0, NaN, NaN, NaN, NaN, NaN,384.864,16.40,1020.44,94.50,NaN,47.0,NaN,4.8,NaN,150.2,NaN,3.9,NaN,NaN, NaN,NaN,87.0,NaN,NaN,NaN,2,2.0,001865,   NaN,92.3,     NaN,      NaN,NaN,1.1,NaN,16.468, NaN,NaN,NaN, NaN, NaN

20040110,003137,365319,31.087000,-122.635000,NaN,16.466,32.935,42.018,  NaN,0.0, NaN, NaN, NaN, NaN, NaN,384.923,16.40,1020.18,94.70,NaN,51.0,NaN,4.0,NaN,141.5,NaN,3.5,NaN,NaN, NaN,NaN,81.0,NaN,NaN,NaN,2,2.1,001895,   NaN,79.5,     NaN,      NaN,NaN,1.1,NaN,16.470, NaN,NaN,NaN, NaN, NaN

20040110,003207,365349,31.087000,-122.634667,NaN,16.468,32.935,42.021,  NaN,0.0, NaN, NaN, NaN, NaN, NaN,384.959,16.30,1020.31,94.50,NaN,60.0,NaN,4.1,NaN,147.0,NaN,3.7,NaN,NaN, NaN,NaN,78.0,NaN,NaN,NaN,2,2.2,001925,   NaN,65.6,     NaN,      NaN,NaN,1.1,NaN,16.472, NaN,NaN,NaN, NaN, NaN

20040110,003237,365379,31.087167,-122.634333,NaN,16.469,32.935,42.022,  NaN,0.0, NaN, NaN, NaN, NaN, NaN,384.999,16.40,1020.11,94.80,NaN,67.0,NaN,3.6,NaN,146.0,NaN,3.2,NaN,NaN, NaN,NaN,63.0,NaN,NaN,NaN,2,2.3,001955,   NaN,60.9,     NaN,      NaN,NaN,1.1,NaN,16.473, NaN,NaN,NaN, NaN, NaN

20040110,003307,365409,31.087333,-122.633833,NaN,16.473,32.935,42.025,  NaN,0.0, NaN, NaN, NaN, NaN, NaN,385.076,16.40,1020.29,94.40,NaN,65.0,NaN,3.2,NaN,150.7,NaN,3.1,NaN,NaN, NaN,NaN,64.0,NaN,NaN,NaN,2,2.8,001985,   NaN,61.3,     NaN,      NaN,NaN,1.4,NaN,16.477, NaN,NaN,NaN, NaN, NaN

20040110,003337,365439,31.087500,-122.633500,NaN,16.482,32.935,42.034,  NaN,0.0, NaN, NaN, NaN, NaN, NaN,385.315,16.30,1020.45,94.80,NaN,61.0,NaN,3.4,NaN,155.4,NaN,3.1,NaN,NaN, NaN,NaN,65.0,NaN,NaN,NaN,2,3.6,002015,   NaN,63.7,     NaN,      NaN,NaN,1.7,NaN,16.486, NaN,NaN,NaN, NaN, NaN

20040110,003407,365469,31.087667,-122.632833,NaN,16.471,32.936,42.025,  NaN,0.0, NaN, NaN, NaN, NaN, NaN,384.928,16.40,1020.30,94.80,NaN,57.0,NaN,3.5,NaN,151.3,NaN,3.2,NaN,NaN, NaN,NaN,61.0,NaN,NaN,NaN,2,4.0,002045,   NaN,61.4,     NaN,      NaN,NaN,2.3,NaN,16.475, NaN,NaN,NaN, NaN, NaN

20040110,003437,365499,31.088000,-122.632167,NaN,16.462,32.934,42.014,  NaN,0.0, NaN, NaN, NaN, NaN, NaN,384.913,16.40,1020.49,94.70,NaN,60.0,NaN,3.6,NaN,159.0,NaN,3.4,NaN,NaN, NaN,NaN,60.0,NaN,NaN,NaN,2,5.0,002075,   NaN,58.7,     NaN,      NaN,NaN,2.9,NaN,16.466, NaN,NaN,NaN, NaN, NaN

20040110,003507,365529,31.088333,-122.631500,NaN,16.466,32.933,42.017,  NaN,0.0, NaN, NaN, NaN, NaN, NaN,385.079,16.30,1020.14,94.70,NaN,51.0,NaN,5.7,NaN,144.6,NaN,4.1,NaN,NaN, NaN,NaN,62.0,NaN,NaN,NaN,2,5.6,002105,   NaN,59.6,     NaN,      NaN,NaN,3.4,NaN,16.470, NaN,NaN,NaN, NaN, NaN

20040110,003537,365559,31.088667,-122.630500,NaN,16.455,32.933,42.006,  NaN,0.0, NaN, NaN, NaN, NaN, NaN,384.825,16.30,1020.34,94.70,NaN,45.0,NaN,5.2,NaN,145.3,NaN,4.2,NaN,NaN, NaN,NaN,66.0,NaN,NaN,NaN,2,6.4,002135,   NaN,62.0,     NaN,      NaN,NaN,3.8,NaN,16.459, NaN,NaN,NaN, NaN, NaN

20040110,003607,365589,31.089167,-122.629667,NaN,16.444,32.931,41.993,  NaN,0.0, NaN, NaN, NaN, NaN, NaN,384.770,16.30,1020.38,94.70,NaN,48.0,NaN,5.8,NaN,149.9,NaN,4.5,NaN,NaN, NaN,NaN,62.0,NaN,NaN,NaN,2,6.9,002165,   NaN,59.4,     NaN,      NaN,NaN,4.4,NaN,16.448, NaN,NaN,NaN, NaN, NaN

20040110,003637,365619,31.089667,-122.628500,NaN,16.451,32.929,41.997,  NaN,0.0, NaN, NaN, NaN, NaN, NaN,384.997,16.40,1020.14,94.70,NaN,47.0,NaN,6.4,NaN,146.1,NaN,4.9,NaN,NaN, NaN,NaN,63.0,NaN,NaN,NaN,2,7.5,002195,   NaN,58.9,     NaN,      NaN,NaN,4.7,NaN,16.454, NaN,NaN,NaN, NaN, NaN

20040110,003707,365649,31.090167,-122.627500,NaN,16.462,32.930,42.009,  NaN,0.0, NaN, NaN, NaN, NaN, NaN,385.185,16.40,1020.45,94.70,NaN,41.0,NaN,6.2,NaN,140.9,NaN,3.9,NaN,NaN, NaN,NaN,63.0,NaN,NaN,NaN,2,8.2,002225,   NaN,62.0,     NaN,      NaN,NaN,5.2,NaN,16.465, NaN,NaN,NaN, NaN, NaN

20040110,003737,365679,31.090667,-122.626167,NaN,16.445,32.930,41.993,  NaN,0.0, NaN, NaN, NaN, NaN, NaN,384.835,16.40,1020.46,94.70,NaN,38.0,NaN,6.9,NaN,143.3,NaN,4.7,NaN,NaN, NaN,NaN,65.0,NaN,NaN,NaN,2,8.4,002255,   NaN,60.6,     NaN,      NaN,NaN,5.4,NaN,16.449, NaN,NaN,NaN, NaN, NaN

20040110,003807,365709,31.091167,-122.625000,NaN,16.420,32.924,41.962,  NaN,0.0, NaN, NaN, NaN, NaN, NaN,384.740,16.30,1020.34,94.70,NaN,37.0,NaN,6.2,NaN,137.8,NaN,4.1,NaN,NaN, NaN,NaN,63.0,NaN,NaN,NaN,2,8.5,002285,   NaN,59.2,     NaN,      NaN,NaN,5.7,NaN,16.424, NaN,NaN,NaN, NaN, NaN

20040110,003837,365739,31.091833,-122.623667,NaN,16.412,32.921,41.952,  NaN,0.0, NaN, NaN, NaN, NaN, NaN,384.747,16.30,1020.33,94.80,NaN,35.0,NaN,6.6,NaN,138.9,NaN,3.9,NaN,NaN, NaN,NaN,61.0,NaN,NaN,NaN,2,8.5,002315,   NaN,60.1,     NaN,      NaN,NaN,5.8,NaN,16.416, NaN,NaN,NaN, NaN, NaN

20040110,003907,365769,31.092333,-122.622500,NaN,16.410,32.920,41.949,  NaN,0.0, NaN, NaN, NaN, NaN, NaN,384.795,16.40,1020.19,94.70,NaN,40.0,NaN,6.8,NaN,137.0,NaN,3.9,NaN,NaN, NaN,NaN,64.0,NaN,NaN,NaN,2,8.7,002345,   NaN,60.9,     NaN,      NaN,NaN,5.7,NaN,16.414, NaN,NaN,NaN, NaN, NaN

20040110,003937,365799,31.093000,-122.621167,NaN,16.418,32.921,41.957,  NaN,0.0, NaN, NaN, NaN, NaN, NaN,384.926,16.30,1020.41,94.50,NaN,46.0,NaN,6.9,NaN,150.3,NaN,4.8,NaN,NaN, NaN,NaN,63.0,NaN,NaN,NaN,2,9.0,002375,   NaN,60.8,     NaN,      NaN,NaN,5.6,NaN,16.422, NaN,NaN,NaN, NaN, NaN

20040110,004007,365829,31.093500,-122.620000,NaN,16.411,32.918,41.947,  NaN,0.0, NaN, NaN, NaN, NaN, NaN,384.931,16.30,1020.45,94.70,NaN,41.0,NaN,6.5,NaN,146.0,NaN,4.0,NaN,NaN, NaN,NaN,61.0,NaN,NaN,NaN,2,8.9,002405,   NaN,59.9,     NaN,      NaN,NaN,5.7,NaN,16.415, NaN,NaN,NaN, NaN, NaN

20040110,004037,365859,31.094167,-122.618667,NaN,16.401,32.917,41.937,  NaN,0.0, NaN, NaN, NaN, NaN, NaN,384.808,16.40,1020.39,94.70,NaN,47.0,NaN,6.3,NaN,155.1,NaN,4.3,NaN,NaN, NaN,NaN,63.0,NaN,NaN,NaN,2,8.9,002435,   NaN,60.3,     NaN,      NaN,NaN,5.7,NaN,16.405, NaN,NaN,NaN, NaN, NaN
